Winona, MN

7:12 AM CDT on August 17, 2017 (GMT -0500)
Winona Municipal-Conrad

Weather History for KONA - December, 2013

Change the Weather History Date:

Saturday, December 28, 2013

  Actual Average Record
Temperature  
Mean Temperature 30 °F -  
Max Temperature 42 °F 29 °F 51 °F (2003)
Min Temperature 19 °F 14 °F -9 °F (2000)
Degree Days  
Heating Degree Days 34    
Moisture  
Dew Point 27 °F    
Average Humidity 83    
Maximum Humidity 100    
Minimum Humidity 57    
Precipitation  
Precipitation 0.00 in - - ()
Sea Level Pressure  
Sea Level Pressure 29.84 in    
Wind  
Wind Speed 3 mph (SSW)    
Max Wind Speed 20 mph    
Max Gust Speed 24 mph    
Visibility 9 miles    
Events Fog    
Averages and records for this station are not official NWS values.
T = Trace of Precipitation, MM = Missing Value Source: NWS Daily Summary

Daily Weather History Graph

Daily Weather History Graph

Search for Another Location

Airport or City:

Trip Planner

Search our weather history database for the weather conditions in past years. The results will help you decide how hot, cold, wet, or windy it might be!

Date:

Astronomy

Dec. 28, 2013 Rise Set
Actual Time 7:41 AM CST 4:35 PM CST
Civil Twilight 7:08 AM CST 5:09 PM CST
Nautical Twilight 6:31 AM CST 5:45 PM CST
Astronomical Twilight 5:56 AM CST 6:20 PM CST
Moon 3:13 AM CST (12/28) 1:31 PM CST (12/28)
Length of Visible Light 10h 00m
Length of Day
8h 54m
Waning Crescent, 19% of the Moon is Illuminated
Dec 28
Waning Crescent
Jan 1
New
Jan 7
First Quarter
Jan 15
Full
Jan 23
Last Quarter

Hourly Weather History & Observations

Time (CST) Temp. Windchill Dew Point Humidity Pressure Visibility Wind Dir Wind Speed Gust Speed Precip Events Conditions
12:17 AM 28.4 °F - 28.4 °F 100% 30.01 in 10.0 mi Calm Calm - N/A   Clear
12:36 AM 26.6 °F - 26.6 °F 100% 30.00 in 10.0 mi Calm Calm - N/A   Clear
12:56 AM 33.8 °F 28.6 °F 32.0 °F 93% 30.00 in 10.0 mi WSW 5.8 mph - N/A   Clear
1:17 AM 33.8 °F 30.8 °F 32.0 °F 93% 29.99 in 10.0 mi SW 3.5 mph - N/A   Clear
1:37 AM 32.0 °F - 30.2 °F 93% 29.99 in 10.0 mi Calm Calm - N/A   Clear
1:56 AM 28.4 °F 24.6 °F 26.6 °F 93% 29.99 in 10.0 mi WSW 3.5 mph - N/A   Clear
2:17 AM 24.8 °F - 23.0 °F 93% 30.00 in 10.0 mi Calm Calm - N/A   Clear
2:37 AM 24.8 °F - 23.0 °F 93% 30.00 in 10.0 mi Calm Calm - N/A   Clear
2:56 AM 23.0 °F - 21.2 °F 93% 29.99 in 7.0 mi Calm Calm - N/A   Clear
3:17 AM 21.2 °F - 21.2 °F 100% 29.99 in 4.0 mi Calm Calm - N/A   Clear
3:37 AM 21.2 °F - 21.2 °F 100% 29.99 in 10.0 mi Calm Calm - N/A   Clear
3:56 AM 21.2 °F - 21.2 °F 100% 29.98 in 10.0 mi Calm Calm - N/A   Clear
4:17 AM 19.4 °F - 19.4 °F 100% 29.97 in 0.5 mi Calm Calm - N/A Fog Light Freezing Fog
4:37 AM 21.2 °F - 19.4 °F 93% 29.96 in 1.5 mi Calm Calm - N/A   Mist
4:56 AM 19.4 °F 14.3 °F 19.4 °F 100% 29.96 in 1.0 mi SW 3.5 mph - N/A   Mist
5:17 AM 19.4 °F 14.3 °F 19.4 °F 100% 29.96 in 7.0 mi ESE 3.5 mph - N/A   Clear
5:37 AM 19.4 °F - 19.4 °F 100% 29.95 in 10.0 mi Calm Calm - N/A   Clear
5:56 AM 19.4 °F - 19.4 °F 100% 29.94 in 10.0 mi Calm Calm - N/A   Clear
6:17 AM 21.2 °F - 19.4 °F 93% 29.94 in 10.0 mi Calm Calm - N/A   Clear
6:36 AM 19.4 °F - 19.4 °F 100% 29.93 in 7.0 mi Calm Calm - N/A   Clear
6:57 AM 19.4 °F - 17.6 °F 93% 29.92 in 10.0 mi Calm Calm - N/A   Clear
7:16 AM 19.4 °F 14.3 °F 19.4 °F 100% 29.91 in 7.0 mi SSE 3.5 mph - N/A   Clear
7:37 AM 21.2 °F - 19.4 °F 93% 29.92 in 7.0 mi Calm Calm - N/A   Clear
7:57 AM 21.2 °F - 19.4 °F 93% 29.91 in 5.0 mi Calm Calm - N/A   Clear
8:16 AM 19.4 °F - 19.4 °F 100% 29.91 in 7.0 mi Calm Calm - N/A   Clear
8:37 AM 21.2 °F 14.9 °F 21.2 °F 100% 29.90 in 5.0 mi SE 4.6 mph - N/A   Clear
8:57 AM 24.8 °F - 24.8 °F 100% 29.89 in 7.0 mi Calm Calm - N/A   Clear
9:16 AM 28.4 °F - 26.6 °F 93% 29.89 in 10.0 mi Calm Calm - N/A   Clear
9:37 AM 30.2 °F - 30.2 °F 100% 29.89 in 10.0 mi Calm Calm - N/A   Clear
9:57 AM 30.2 °F - 30.2 °F 100% 29.89 in 10.0 mi Calm Calm - N/A   Clear
10:16 AM 30.2 °F 26.7 °F 28.4 °F 93% 29.87 in 10.0 mi SE 3.5 mph - N/A   Clear
10:36 AM 33.8 °F 30.8 °F 30.2 °F 87% 29.87 in 10.0 mi SE 3.5 mph - N/A   Clear
10:57 AM 33.8 °F 27.7 °F 30.2 °F 87% 29.85 in 10.0 mi ESE 6.9 mph - N/A   Clear
11:16 AM 35.6 °F 29.2 °F 30.2 °F 81% 29.84 in 10.0 mi ESE 8.1 mph - N/A   Clear
11:36 AM 35.6 °F 29.9 °F 30.2 °F 81% 29.82 in 10.0 mi ESE 6.9 mph - N/A   Clear
11:57 AM 37.4 °F 32.1 °F 30.2 °F 75% 29.82 in 10.0 mi SE 6.9 mph - N/A   Clear
12:16 PM 37.4 °F 31.4 °F 30.2 °F 75% 29.80 in 10.0 mi SE 8.1 mph - N/A   Clear
12:37 PM 39.2 °F 35.0 °F 30.2 °F 70% 29.79 in 10.0 mi South 5.8 mph - N/A   Clear
12:57 PM 42.8 °F 40.1 °F 28.4 °F 57% 29.78 in 10.0 mi South 4.6 mph - N/A   Clear
1:16 PM 42.8 °F 40.1 °F 28.4 °F 57% 29.77 in 10.0 mi South 4.6 mph - N/A   Clear
1:37 PM 42.8 °F 40.1 °F 28.4 °F 57% 29.76 in 10.0 mi SSE 4.6 mph - N/A   Clear
1:57 PM 42.8 °F 40.1 °F 28.4 °F 57% 29.74 in 10.0 mi SSE 4.6 mph - N/A   Clear
2:16 PM 42.8 °F 40.1 °F 28.4 °F 57% 29.73 in 10.0 mi SSE 4.6 mph - N/A   Clear
2:37 PM 42.8 °F 37.0 °F 28.4 °F 57% 29.73 in 10.0 mi South 10.4 mph 16.1 mph N/A   Clear
2:57 PM 42.8 °F 40.1 °F 28.4 °F 57% 29.73 in 10.0 mi South 4.6 mph - N/A   Clear
3:16 PM 42.8 °F 38.6 °F 28.4 °F 57% 29.72 in 10.0 mi South 6.9 mph - N/A   Clear
3:37 PM 41.0 °F 38.0 °F 28.4 °F 61% 29.72 in 10.0 mi South 4.6 mph - N/A   Clear
3:57 PM 41.0 °F 38.0 °F 28.4 °F 61% 29.72 in 10.0 mi South 4.6 mph - N/A   Clear
4:16 PM 41.0 °F 38.0 °F 28.4 °F 61% 29.71 in 10.0 mi SSE 4.6 mph - N/A   Clear
4:37 PM 41.0 °F - 30.2 °F 65% 29.71 in 10.0 mi Calm Calm - N/A   Clear
4:57 PM 41.0 °F 39.0 °F 28.4 °F 61% 29.72 in 10.0 mi SSW 3.5 mph - N/A   Clear
5:17 PM 41.0 °F 39.0 °F 30.2 °F 65% 29.72 in 10.0 mi SSW 3.5 mph - N/A   Clear
5:36 PM 39.2 °F 37.0 °F 30.2 °F 70% 29.72 in 10.0 mi SW 3.5 mph - N/A   Clear
5:57 PM 41.0 °F - 30.2 °F 65% 29.72 in 10.0 mi Calm Calm - N/A   Clear
6:17 PM 41.0 °F - 30.2 °F 65% 29.72 in 10.0 mi Calm Calm - N/A   Clear
6:37 PM 37.4 °F - 30.2 °F 75% 29.71 in 10.0 mi Calm Calm - N/A   Clear
6:57 PM 37.4 °F - 30.2 °F 75% 29.71 in 10.0 mi Calm Calm - N/A   Clear
7:16 PM 37.4 °F - 30.2 °F 75% 29.71 in 10.0 mi Calm Calm - N/A   Clear
7:37 PM 41.0 °F 37.1 °F 30.2 °F 65% 29.72 in 10.0 mi West 5.8 mph - N/A   Clear
7:57 PM 41.0 °F 38.0 °F 30.2 °F 65% 29.72 in 10.0 mi West 4.6 mph - N/A   Clear
8:16 PM 41.0 °F 38.0 °F 30.2 °F 65% 29.72 in 10.0 mi SW 4.6 mph - N/A   Clear
8:37 PM 41.0 °F 35.8 °F 30.2 °F 65% 29.72 in 10.0 mi WSW 8.1 mph - N/A   Clear
8:57 PM 39.2 °F 34.2 °F 32.0 °F 75% 29.72 in 10.0 mi West 6.9 mph - N/A   Clear
9:16 PM 37.4 °F 31.4 °F 32.0 °F 81% 29.73 in 10.0 mi West 8.1 mph - N/A   Clear
9:37 PM 37.4 °F 30.3 °F 32.0 °F 81% 29.74 in 10.0 mi WNW 10.4 mph 16.1 mph N/A   Clear
9:57 PM 37.4 °F 29.3 °F 32.0 °F 81% 29.75 in 10.0 mi WNW 12.7 mph 16.1 mph N/A   Clear
10:16 PM 35.6 °F 28.0 °F 32.0 °F 87% 29.76 in 10.0 mi WNW 10.4 mph 21.9 mph N/A   Mostly Cloudy
10:37 PM 33.8 °F 24.3 °F 32.0 °F 93% 29.79 in 10.0 mi NW 13.8 mph 21.9 mph N/A   Overcast
10:57 PM 33.8 °F 22.5 °F 32.0 °F 93% 29.79 in 7.0 mi NW 19.6 mph 24.2 mph N/A   Overcast
11:16 PM 33.8 °F 24.3 °F 32.0 °F 93% 29.80 in 7.0 mi NW 13.8 mph 24.2 mph N/A   Overcast
11:37 PM 33.8 °F 24.8 °F 32.0 °F 93% 29.81 in 5.0 mi NW 12.7 mph - N/A   Overcast
11:57 PM 33.8 °F 23.9 °F 32.0 °F 93% 29.82 in 5.0 mi NW 15.0 mph - N/A   Overcast